Location: Newark
(39.9267°N, 1.8017°W)
Time: 18:54:59
(UTC+00:00)

Envisat - Pass Details

Date: 25 October 2019
Orbit: 764 x 766 km, 98.1° (Epoch: 22 November)

Event Time Altitude Azimuth Distance (km) Brightness Sun altitude
Rises 19:22:22 0° 206° (SSW) 3,219 6.5 -25.2°
Reaches altitude 10° 19:25:20 10° 224° (SW) 2,298 5.9 -25.8°
Maximum altitude 19:28:49 19° 268° (W) 1,788 5.7 -26.4°
Drops below altitude 10° 19:32:19 10° 312° (NW) 2,309 6.2 -27.1°
Sets 19:35:20 0° 330° (NNW) 3,240 6.7 -27.7°
